Location: Mountain Grove
(34.0887°N, 86.6172°W)
Time: 00:42:26
(UTC+00:00)

Cosmos 1486 Rocket - Pass Details

Date: 14 July 2020
Orbit: 759 x 782 km, 74.1° (Epoch: 12 August)

Event Time Altitude Azimuth Distance (km) Brightness Sun altitude
Exits shadow 10:09:22 - 203° (SSW) 2,928 6.5 -7.4°
Reaches altitude 10° 10:10:57 10° 205° (SSW) 2,317 6.0 -7.1°
Maximum altitude 10:16:11 66° 288° (WNW) 840 4.1 -6.2°
Drops below altitude 10° 10:21:25 10° 11° (N) 2,315 7.1 -5.3°
Sets 10:23:49 0° 14° (NNE) 3,242 8.0 -4.8°
